Regional Weather Roundup
Issued by NWS

Home | Current Version | Previous Version | Graphics & Text | Print | Product List | Glossary On
Versions: 1 2 3 4 5 6 7 8 9 10 11 12 13 14 15 16 17 18 19 20 21 22 23 24 25 26 27
000
ASUS45 KBOU 282207
RWRCO

WEATHER ROUNDUP FOR COLORADO
NATIONAL WEATHER SERVICE DENVER/BOULDER CO
400 PM MDT SUN AUG 28 2016

NOTE: "FAIR" INDICATES FEW OR NO CLOUDS BELOW 12000 FEET WITH NO
SIGNIFICANT WEATHER AND/OR OBSTRUCTIONS TO VISIBILITY.

COZ001>005-013-030-031-282300-
...NORTHWEST COLORADO...

CITY           SKY/WX    TMP DP  RH WIND       PRES   REMARKS
CRAIG          FAIR      82  26  13 NW10      30.22F
HAYDEN         FAIR      79  30  17 W16G22    30.24F
MEEKER         FAIR      75  37  25 SW7       30.25F
MOUNT WERNER   NOT AVBL
STEAMBOAT SPGS PTSUNNY   74  33  22 NW14      30.26S
WALDEN         FAIR      63  32  31 S18G25    30.39R
$$

COZ006>008-011-282300-
...WEST CENTRAL VALLEYS...

CITY           SKY/WX    TMP DP  RH WIND       PRES   REMARKS
GRAND JUNCTION FAIR      77  49  37 SW7       30.19F
MONTROSE       FAIR      77  44  30 NW13G18   30.23F
EAGLE          MOSUNNY   70  46  43 NW9G17    30.30F
RIFLE          PTSUNNY   74  47  38 N9        30.23S
DELTA          NOT AVBL
NUCLA          FAIR     N/A N/A N/A NW7       30.29F
$$

COZ017>023-064>068-282300-
...SOUTHWEST COLORADO...

CITY           SKY/WX    TMP DP  RH WIND       PRES   REMARKS
DURANGO        FAIR      71  41  33 W10       30.26F
CORTEZ         FAIR      75  49  39 W7G18     30.24F
PAGOSA SPRINGS FAIR      72  30  21 S9        30.32F
TELLURIDE      TSTM      55  48  77 W15       30.45R
WOLF CREEK PAS PTSUNNY   46  34  61 SW12G20   30.61F THUNDER
$$

COZ009-010-012-014-032>034-037-058>063-282300-
...CENTRAL COLORADO...

CITY           SKY/WX    TMP DP  RH WIND       PRES   REMARKS
ASPEN          PTSUNNY   69  42  37 W9        30.32F
BUENA VISTA    FAIR      73  32  22 SW5       30.30F
COPPER MTN     CLOUDY    45  36  70 N3        30.64R
BERTHOUD PASS  TSTM      32  19  59 SE28      30.69R VSB<1/4 WCI  18
COTTONWOOD PAS FAIR      64  32  29 S6        30.45F THUNDER
GUNNISON       FAIR      70  41  35 N5        30.32F
KREMMLING      PTSUNNY   70  32  24 N7        30.35S
LEADVILLE      FAIR      59  38  45 N16G24    30.46S
MONARCH PASS   CLOUDY    46  34  61 N8        30.69F
SALIDA         FAIR      77  37  23 SE7       30.34F
SUNLIGHT       CLOUDY    54  41  62 SE3       30.59S
WILKERSON PASS FAIR      52  36  54 E7        30.59F
$$

COZ069>075-282300-
...SAN LUIS VALLEY/SANGRE DE CRISTO MOUNTAINS...

CITY           SKY/WX    TMP DP  RH WIND       PRES   REMARKS
ALAMOSA        FAIR      74  34  23 MISG      30.28F
LA VETA PASS   LGT RAIN  54  41  62 SE6G22    30.49S
SAGUACHE       FAIR      72  36  26 S9        30.32F
$$

COZ035-036-038>040-282300-
...NORTHERN COLORADO FRONT RANGE...

CITY           SKY/WX    TMP DP  RH WIND       PRES   REMARKS
DENVER INTL AP PTSUNNY   84  36  18 S5        30.14F
DMNS CITY PARK   N/A     82  38  21 S3        30.14S
AURORA         PTSUNNY   82  36  19 S6        30.17S
FRONT RANGE AP PTSUNNY   84  36  17 E5        30.16S
ERIE MUNI ARPT FAIR      84  30  14 CALM      30.13S
BOULDER MUN AP FAIR      82  34  17 NE5       30.14S
CENTENNIAL     PTSUNNY   75  39  27 S17G37    30.19S THUNDER
BROOMFIELD     NOT AVBL
FORT COLLINS   FAIR      88  36  15 SW7       30.07F
LONGMONT       FAIR      86  32  14 CALM      30.15S
$$

COZ041-046-047-076>085-087-088-282300-
...PIKES PEAK/PALMER DIVIDE AND SOUTHERN FOOTHILLS...

CITY           SKY/WX    TMP DP  RH WIND       PRES   REMARKS
COLO. SPRINGS  PTSUNNY   79  44  28 N21G28    30.23S THUNDER
A. F. ACADEMY  FAIR      71  44  37 N17       30.25S
SCHRIEVER AFB  NOT AVBL
ELLICOTT       NOT AVBL
FALCON         FAIR      73  38  28 N10G20    30.28F
FORT CARSON    FAIR      80  43  27 N22       30.18R
LIMON          CLOUDY    79  42  26 SE9       30.15S
MONUMENT HILL  FAIR      70  43  37 N9        30.31F
TRINIDAD       FAIR      85  38  18 VRB5      30.15F
$$

COZ042>045-048>051-090-091-282300-
...NORTHEAST COLORADO...

CITY           SKY/WX    TMP DP  RH WIND       PRES   REMARKS
GREELEY ARPT   FAIR      90  43  19 S6        30.10S
AKRON          FAIR      86  45  23 S16       30.11F
BURLINGTON     FAIR      84  53  34 SE13G23   30.10F
WRAY           NOT AVBL
STERLING       FAIR      82  50  32 SE13G25   30.06F
HOLYOKE        FAIR      88  52  29 S9G18     30.08F
FORT MORGAN    FAIR      89  43  20 SE10G16   30.09F
$$

COZ086-089-092>099-282300-
...SOUTHEAST COLORADO...

CITY           SKY/WX    TMP DP  RH WIND       PRES   REMARKS
PUEBLO         FAIR      90  39  16 VRB6      30.06F
LA JUNTA       FAIR      90  45  21 E5        30.05F
LAMAR          FAIR      89  56  32 SE20      30.02F
SPRINGFIELD      N/A     83  57  41 S10G26    30.07F
$$




USA.gov is the U.S. government's official web portal to all federal, state and local government web resources and services.